EW1687 Weather Reports


time (UTC)temp
C
wind
direction
speed
KPH
gust
KPH
rain 1hr
cm
rain 24hr
cm
rain mn
cm
humidity
%
barometer
mb
20260507080053 10 0 0.0 8.0 0.00 1.19 0.58 90 1011.9
20260507075556 10 0 1.6 8.0 0.00 1.19 0.58 90 1011.7
20260507075052 10 0 3.2 8.0 0.00 1.19 0.58 91 1011.9
20260507074559 10 0 0.0 0.0 0.00 1.19 0.58 91 1011.9
20260507074054 10 0 0.0 0.0 0.00 1.19 0.58 91 1011.8
20260507073554 10 0 0.0 0.0 0.00 1.19 0.58 91 1012.0
20260507073054 10 0 0.0 0.0 0.00 1.19 0.58 91 1011.8
20260507072555 10 0 0.0 0.0 0.00 1.19 0.58 91 1011.8
20260507072051 10 0 0.0 6.4 0.00 1.19 0.58 91 1011.8
20260507071601 10 0 0.0 12.9 0.00 1.19 0.58 91 1012.1
20260507071052 10 0 3.2 12.9 0.00 1.19 0.58 91 1012.1
20260507070554 10 299 4.8 14.5 0.00 1.19 0.58 92 1012.1
20260507070057 10 350 4.8 14.5 0.00 1.19 0.58 92 1012.2
20260507065554 11 317 4.8 12.9 0.00 1.19 0.58 93 1012.2
20260507065052 11 343 0.0 0.0 0.00 1.19 0.58 93 1012.1
20260507064610 11 0 0.0 0.0 0.03 1.19 0.58 93 1012.0
20260507064055 11 0 0.0 0.0 0.03 1.19 0.58 93 1012.0
20260507063554 11 0 0.0 0.0 0.03 1.19 0.58 93 1012.0
20260507063059 11 0 0.0 0.0 0.03 1.19 0.58 93 1012.1
20260507062552 11 0 0.0 0.0 0.03 1.19 0.58 92 1012.1
20260507062055 11 0 0.0 0.0 0.03 1.19 0.58 92 1012.2
20260507061553 11 0 0.0 0.0 0.03 1.19 0.58 92 1012.2
20260507061051 11 0 0.0 0.0 0.05 1.19 0.58 92 1012.3
20260507060551 11 0 0.0 0.0 0.08 1.19 0.58 92 1012.1
20260507060058 11 0 0.0 0.0 0.10 1.19 0.58 92 1012.1
20260507055552 11 0 0.0 0.0 0.13 1.19 0.58 92 1012.2
20260507055053 11 0 0.0 0.0 0.20 1.19 0.58 92 1012.1
20260507054608 11 0 0.0 0.0 0.33 1.17 0.56 91 1011.7
20260507054052 11 0 0.0 0.0 0.43 1.17 0.56 91 1012.0
20260507053552 11 0 0.0 0.0 0.48 1.17 0.56 91 1011.7
20260507053052 11 0 0.0 0.0 0.51 1.17 0.56 91 1011.5
20260507052552 11 0 0.0 0.0 0.53 1.17 0.56 90 1011.7
20260507052052 11 0 0.0 0.0 0.53 1.17 0.56 90 1012.0
20260507051555 11 0 0.0 0.0 0.53 1.17 0.56 90 1012.0
20260507051052 11 0 0.0 0.0 0.51 1.14 0.53 89 1011.9
20260507050552 11 0 0.0 0.0 0.48 1.12 0.51 89 1012.1
20260507050100 11 0 0.0 0.0 0.48 1.09 0.48 89 1012.0
20260507045556 11 0 0.0 12.9 0.46 1.07 0.46 88 1012.3
20260507045055 11 0 0.0 16.1 0.38 0.97 0.36 88 1012.1
20260507044555 12 294 4.8 16.1 0.28 0.84 0.23 87 1012.2
20260507044052 12 344 6.4 16.1 0.18 0.74 0.13 87 1012.2
20260507043552 12 0 0.0 0.0 0.13 0.69 0.08 88 1012.0
20260507043101 12 0 0.0 0.0 0.10 0.66 0.05 88 1011.7
20260507042553 12 0 0.0 0.0 0.08 0.64 0.03 87 1011.7
20260507042052 12 0 0.0 0.0 0.08 0.64 0.03 86 1011.6
20260507041605 12 0 0.0 0.0 0.08 0.64 0.03 86 1011.6
20260507041054 12 0 0.0 0.0 0.08 0.64 0.03 85 1011.7
20260507040555 12 0 0.0 14.5 0.08 0.64 0.03 84 1011.5
20260507040100 13 0 0.0 14.5 0.05 0.61 0.00 83 1011.4
20260507035552 13 291 6.4 14.5 0.05 0.61 0.61 82 1011.2
20260507035052 13 342 4.8 14.5 0.03 0.58 0.58 81 1011.0
20260507034607 13 315 3.2 11.3 0.00 0.56 0.56 81 1011.1
20260507034052 13 0 1.6 12.9 0.00 0.56 0.56 80 1011.3
20260507033557 13 0 1.6 14.5 0.00 0.56 0.56 80 1011.3
20260507033055 13 302 4.8 14.5 0.00 0.56 0.56 79 1011.5
20260507032552 13 302 4.8 12.9 0.00 0.56 0.56 79 1011.5
20260507032054 13 315 4.8 16.1 0.00 0.56 0.56 79 1011.2
20260507031604 13 304 4.8 16.1 0.00 0.56 0.56 79 1011.1
20260507031054 13 321 9.7 16.1 0.00 0.56 0.56 79 1011.2
20260507030552 13 311 6.4 17.7 0.00 0.56 0.56 79 1011.1
20260507025551 13 346 8.0 20.9 0.00 0.56 0.56 80 1010.9
20260507025054 14 349 11.3 20.9 0.00 0.56 0.56 80 1010.8
20260507024604 14 350 8.0 16.1 0.00 0.56 0.56 80 1010.9
20260507024053 14 290 3.2 14.5 0.00 0.56 0.56 81 1011.3
20260507023551 14 324 4.8 14.5 0.00 0.56 0.56 80 1011.1
20260507023110 14 323 3.2 12.9 0.00 0.56 0.56 81 1011.2
20260507022551 14 313 4.8 14.5 0.00 0.56 0.56 81 1010.9
20260507022052 14 304 4.8 17.7 0.00 0.56 0.56 80 1011.1
20260507021557 14 336 3.2 17.7 0.00 0.56 0.56 80 1010.9
20260507021053 14 311 6.4 22.5 0.00 0.56 0.56 80 1010.9
20260507020552 14 322 8.0 22.5 0.00 0.56 0.56 80 1010.8
20260507020059 15 331 4.8 16.1 0.00 0.56 0.56 80 1010.9
20260507015551 15 316 6.4 25.7 0.00 0.56 0.56 81 1011.0
20260507015052 15 329 6.4 25.7 0.00 0.56 0.56 81 1011.1
20260507014606 15 296 6.4 17.7 0.00 0.56 0.56 82 1011.1
20260507014052 15 333 4.8 12.9 0.00 0.56 0.56 82 1011.2
20260507013551 15 350 1.6 9.7 0.00 0.56 0.56 83 1011.1
20260507013112 15 342 0.0 8.0 0.00 0.56 0.56 84 1011.1
20260507012551 15 0 1.6 8.0 0.03 0.56 0.56 84 1011.2
20260507012052 15 0 0.0 8.0 0.03 0.56 0.56 84 1011.3
20260507011556 15 0 0.0 8.0 0.03 0.56 0.56 83 1011.2
20260507011051 15 0 3.2 14.5 0.03 0.56 0.56 84 1011.4
20260507010552 15 304 4.8 14.5 0.03 0.56 0.56 84 1011.3
20260507010054 15 298 4.8 14.5 0.03 0.56 0.56 83 1011.0
20260507005552 15 284 6.4 12.9 0.03 0.56 0.56 84 1010.9
20260507005051 15 288 8.0 14.5 0.03 0.56 0.56 84 1011.1
20260507004552 15 278 8.0 16.1 0.03 0.56 0.56 84 1010.9
20260507004052 16 303 8.0 16.1 0.03 0.56 0.56 84 1010.6
20260507003552 16 300 4.8 17.7 0.03 0.56 0.56 84 1010.4
20260507003057 16 279 8.0 20.9 0.03 0.56 0.56 85 1010.5
20260507002552 16 324 12.9 20.9 0.00 0.53 0.53 85 1010.3
20260507002052 16 298 9.7 17.7 0.00 0.53 0.53 87 1010.6
20260507001612 16 296 9.7 22.5 0.00 0.53 0.53 88 1010.7
20260507001054 16 269 11.3 22.5 0.00 0.53 0.53 89 1010.2
20260507000551 17 277 8.0 14.5 0.00 0.53 0.53 91 1009.9
20260507000059 17 286 8.0 14.5 0.00 0.53 0.53 91 1009.7
20260506235552 17 290 6.4 14.5 0.00 0.53 0.53 91 1009.6
20260506235054 17 281 6.4 14.5 0.00 0.53 0.53 91 1009.4
20260506234555 17 288 8.0 12.9 0.03 0.53 0.53 91 1009.2
20260506234054 17 263 8.0 12.9 0.05 0.53 0.53 91 1009.2
20260506233552 17 267 6.4 12.9 0.08 0.53 0.53 91 1009.3
20260506233059 17 263 4.8 11.3 0.08 0.53 0.53 91 1008.9
20260506232551 17 286 3.2 8.0 0.08 0.53 0.53 91 1008.8
20260506232052 17 286 3.2 8.0 0.08 0.53 0.53 91 1008.8
20260506231554 17 288 4.8 12.9 0.08 0.53 0.53 91 1009.0
20260506231053 17 300 6.4 12.9 0.08 0.53 0.53 91 1008.9
20260506230552 17 245 3.2 12.9 0.08 0.53 0.53 90 1008.9
20260506230055 17 258 6.4 12.9 0.08 0.53 0.53 90 1008.9
20260506225555 17 238 6.4 14.5 0.08 0.53 0.53 89 1008.8
20260506225052 17 254 3.2 14.5 0.08 0.53 0.53 88 1009.0
20260506224604 18 254 6.4 14.5 0.05 0.51 0.51 88 1009.0
20260506224052 18 258 4.8 17.7 0.03 0.48 0.48 88 1008.9
20260506223551 18 221 4.8 17.7 0.00 0.46 0.46 87 1008.9
20260506223115 18 259 4.8 17.7 0.00 0.46 0.46 86 1009.0
20260506222552 18 250 3.2 19.3 0.00 0.46 0.46 86 1008.6
20260506222054 18 251 6.4 19.3 0.00 0.46 0.46 85 1008.8
20260506221559 18 252 4.8 16.1 0.00 0.46 0.46 85 1008.7
20260506221053 18 252 4.8 16.1 0.00 0.46 0.46 85 1008.7
20260506220552 18 247 4.8 14.5 0.00 0.46 0.46 85 1008.7
20260506220056 18 0 3.2 16.1 0.00 0.46 0.46 84 1008.5
20260506215552 18 223 6.4 16.1 0.00 0.46 0.46 84 1008.6
20260506215051 18 261 6.4 19.3 0.00 0.46 0.46 84 1008.4
20260506214604 18 264 8.0 19.3 0.00 0.46 0.46 84 1008.4
20260506214054 18 261 4.8 12.9 0.00 0.46 0.46 84 1008.2
20260506213556 18 234 0.0 12.9 0.00 0.46 0.46 84 1008.1
20260506213053 18 226 1.6 12.9 0.00 0.46 0.46 84 1008.0
20260506212552 18 0 3.2 12.9 0.00 0.46 0.46 84 1007.9
20260506212056 18 228 4.8 11.3 0.00 0.46 0.46 84 1008.1
20260506211557 19 214 1.6 11.3 0.00 0.46 0.46 84 1008.0
20260506211052 19 219 0.0 12.9 0.00 0.46 0.46 84 1008.0
20260506210552 19 223 4.8 19.3 0.00 0.46 0.46 83 1008.0
20260506205551 19 231 8.0 19.3 0.00 0.46 0.46 84 1007.8
20260506205051 19 243 6.4 12.9 0.00 0.46 0.46 84 1007.7
20260506204556 19 262 6.4 12.9 0.00 0.46 0.46 85 1007.7
20260506204052 19 273 1.6 12.9 0.00 0.46 0.46 85 1007.8
20260506203554 18 258 1.6 12.9 0.00 0.46 0.46 87 1007.9
20260506203101 18 0 1.6 12.9 0.00 0.46 0.46 87 1007.9
20260506202553 18 228 3.2 11.3 0.00 0.46 0.46 87 1008.0
20260506202053 18 237 1.6 11.3 0.00 0.46 0.46 87 1007.9
20260506201555 18 0 1.6 11.3 0.00 0.46 0.46 87 1008.0
20260506201053 18 0 1.6 11.3 0.00 0.46 0.46 86 1008.0
20260506200553 18 269 3.2 16.1 0.00 0.46 0.46 87 1008.0
20260506200136 18 241 3.2 16.1 0.00 0.46 0.46 87 1008.1
20260506195552 18 249 8.0 16.1 0.00 0.46 0.46 87 1008.1
20260506195052 18 255 8.0 16.1 0.00 0.46 0.46 87 1007.9
20260506194609 18 250 6.4 17.7 0.00 0.46 0.46 87 1008.0
20260506194051 18 243 8.0 17.7 0.00 0.46 0.46 87 1008.1
20260506193551 18 261 6.4 17.7 0.00 0.46 0.46 87 1008.0
20260506193131 18 209 9.7 19.3 0.00 0.46 0.46 86 1008.1
20260506192553 18 251 9.7 19.3 0.00 0.46 0.46 86 1008.2
20260506192054 18 261 4.8 17.7 0.00 0.46 0.46 86 1008.1
20260506191601 18 257 11.3 22.5 0.00 0.46 0.46 85 1008.2
20260506191052 18 241 8.0 25.7 0.00 0.46 0.46 85 1008.2
20260506190553 18 246 14.5 25.7 0.00 0.46 0.46 86 1008.2
20260506185553 18 252 6.4 14.5 0.00 0.46 0.46 89 1008.1
20260506185052 17 243 6.4 14.5 0.00 0.46 0.46 87 1008.2
20260506184608 17 202 4.8 14.5 0.00 0.46 0.46 87 1008.3
20260506184053 17 254 4.8 16.1 0.00 0.46 0.46 87 1008.4
20260506183552 17 218 4.8 16.1 0.00 0.46 0.46 87 1008.4
20260506183113 17 243 3.2 14.5 0.00 0.46 0.46 87 1008.3
20260506182551 17 0 4.8 19.3 0.00 0.46 0.46 86 1008.4
20260506182053 17 240 6.4 19.3 0.00 0.46 0.46 86 1008.4
20260506181610 17 230 4.8 16.1 0.00 0.46 0.46 86 1008.5
20260506181053 17 221 4.8 17.7 0.00 0.46 0.46 86 1008.6
20260506180552 17 239 6.4 19.3 0.00 0.46 0.46 86 1008.5
20260506180110 17 254 6.4 19.3 0.00 0.46 0.46 87 1008.6
20260506175554 17 266 6.4 19.3 0.00 0.46 0.46 87 1008.6
20260506175051 17 252 8.0 19.3 0.00 0.46 0.46 87 1008.6
20260506174609 17 257 4.8 19.3 0.00 0.46 0.46 87 1008.6
20260506174054 17 263 4.8 17.7 0.00 0.46 0.46 88 1008.6
20260506173551 17 209 6.4 17.7 0.00 0.46 0.46 88 1008.5
20260506173123 17 163 3.2 14.5 0.00 0.46 0.46 88 1008.6
20260506172558 17 139 4.8 14.5 0.00 0.46 0.46 89 1008.6
20260506172053 16 207 3.2 19.3 0.00 0.46 0.46 89 1008.6
20260506171603 16 0 6.4 19.3 0.00 0.46 0.46 89 1008.7
20260506171051 16 228 6.4 19.3 0.00 0.46 0.46 89 1008.6
20260506170553 16 164 8.0 17.7 0.00 0.46 0.46 89 1008.8
20260506170059 16 222 3.2 17.7 0.00 0.46 0.46 89 1008.8
20260506165551 16 144 4.8 17.7 0.00 0.46 0.46 89 1008.9
20260506165051 16 238 4.8 16.1 0.00 0.46 0.46 90 1008.7
20260506164555 16 238 6.4 16.1 0.00 0.46 0.46 90 1008.7
20260506164051 16 205 4.8 17.7 0.00 0.46 0.46 90 1008.7
20260506163551 16 219 4.8 20.9 0.00 0.46 0.46 90 1008.7
20260506163103 16 225 4.8 20.9 0.00 0.46 0.46 91 1008.7
20260506162555 16 171 4.8 17.7 0.00 0.46 0.46 91 1008.7
20260506162053 16 230 8.0 17.7 0.00 0.46 0.46 91 1008.8
20260506161558 16 243 4.8 17.7 0.00 0.46 0.46 92 1008.9
20260506161052 16 158 3.2 17.7 0.03 0.46 0.46 92 1008.8
20260506160555 16 209 3.2 16.1 0.03 0.46 0.46 92 1009.0
20260506160107 16 227 3.2 16.1 0.03 0.46 0.46 92 1008.9
20260506155554 16 212 3.2 16.1 0.05 0.46 0.46 92 1009.0
20260506155054 16 219 3.2 16.1 0.05 0.46 0.46 92 1008.9
20260506154553 16 198 3.2 19.3 0.10 0.46 0.46 92 1008.8
20260506154052 16 225 6.4 19.3 0.15 0.46 0.46 93 1008.9
20260506153552 16 0 6.4 19.3 0.18 0.46 0.46 93 1008.7
20260506153055 16 229 3.2 17.7 0.20 0.46 0.46 93 1008.7
20260506152552 16 130 3.2 17.7 0.23 0.46 0.46 93 1008.7
20260506152053 16 123 4.8 25.7 0.23 0.46 0.46 93 1008.8
20260506151554 16 147 11.3 25.7 0.25 0.46 0.46 92 1008.3
20260506151051 15 155 11.3 24.1 0.23 0.43 0.43 92 1008.3
20260506150553 15 145 16.1 27.4 0.23 0.43 0.43 92 1008.8
20260506150058 16 163 11.3 27.4 0.23 0.43 0.43 92 1008.9
20260506145555 15 162 4.8 19.3 0.20 0.41 0.41 92 1009.2
20260506145053 15 138 4.8 17.7 0.23 0.41 0.41 92 1009.5
20260506144555 15 146 3.2 17.7 0.18 0.36 0.36 91 1009.5
20260506144053 16 233 4.8 17.7 0.15 0.30 0.30 91 1009.7
20260506143553 16 234 4.8 16.1 0.15 0.28 0.28 91 1009.7
20260506143055 16 0 3.2 16.1 0.13 0.25 0.25 91 1009.6
20260506142552 16 0 3.2 14.5 0.13 0.23 0.23 91 1009.6
20260506142053 16 134 4.8 17.7 0.15 0.23 0.23 91 1009.5
20260506141553 16 235 3.2 19.3 0.13 0.20 0.20 91 1009.5
20260506141052 16 136 4.8 20.9 0.13 0.20 0.20 91 1009.4
20260506140555 16 105 6.4 20.9 0.15 0.20 0.20 91 1009.3
20260506140053 16 134 8.0 19.3 0.15 0.20 0.20 91 1009.1
20260506135551 16 141 6.4 16.1 0.15 0.20 0.20 91 1009.1
20260506135051 16 0 6.4 22.5 0.13 0.18 0.18 90 1009.1
20260506134618 16 128 8.0 24.1 0.13 0.18 0.18 90 1009.1
20260506134055 16 173 6.4 24.1 0.10 0.15 0.15 89 1009.0
20260506133552 16 152 12.9 20.9 0.10 0.13 0.13 89 1009.1
20260506133059 16 146 9.7 20.9 0.08 0.10 0.10 89 1009.1
20260506132551 16 196 11.3 24.1 0.08 0.10 0.10 88 1009.2
20260506132051 16 122 6.4 24.1 0.08 0.08 0.08 88 1009.1
20260506131609 16 0 9.7 19.3 0.08 0.08 0.08 87 1009.2
20260506131053 16 126 6.4 19.3 0.08 0.08 0.08 87 1009.3
20260506130551 16 165 6.4 24.1 0.05 0.05 0.05 87 1009.3
20260506130057 16 146 6.4 24.1 0.05 0.05 0.05 87 1009.3
20260506125554 16 164 9.7 22.5 0.05 0.05 0.05 86 1009.2
20260506125054 16 216 8.0 22.5 0.05 0.05 0.05 86 1009.2
20260506124554 16 199 8.0 20.9 0.05 0.05 0.05 85 1009.1
20260506124055 16 153 6.4 20.9 0.05 0.05 0.05 85 1009.3
20260506123553 16 157 4.8 16.1 0.03 0.03 0.03 85 1009.2
20260506123056 16 206 4.8 27.4 0.03 0.03 0.03 84 1009.3
20260506122553 16 147 11.3 27.4 0.03 0.03 0.03 83 1009.4
20260506122050 17 174 3.2 17.7 0.00 0.00 0.00 82 1009.4
20260506121605 17 0 4.8 20.9 0.00 0.00 0.00 81 1009.6
20260506121050 17 0 6.4 20.9 0.00 0.00 0.00 80 1009.6
20260506120553 17 247 8.0 17.7 0.00 0.00 0.00 79 1009.7
20260506120055 17 210 8.0 19.3 0.00 0.00 0.00 79 1009.7
20260506115552 17 229 6.4 19.3 0.00 0.00 0.00 78 1009.7
20260506115052 17 217 8.0 20.9 0.00 0.00 0.00 78 1009.5
20260506114555 17 251 4.8 20.9 0.00 0.00 0.00 77 1009.4
20260506114052 17 212 4.8 19.3 0.00 0.00 0.00 76 1009.3
20260506113551 17 238 6.4 19.3 0.00 0.00 0.00 75 1009.5
20260506113053 18 277 8.0 19.3 0.00 0.00 0.00 73 1009.4
20260506112551 18 211 6.4 17.7 0.00 0.00 0.00 72 1009.1
20260506112050 18 219 3.2 16.1 0.00 0.00 0.00 71 1009.0
20260506111610 18 203 6.4 17.7 0.00 0.00 0.00 71 1009.0
20260506111050 18 173 1.6 17.7 0.00 0.00 0.00 71 1009.0
20260506110553 18 194 3.2 17.7 0.00 0.00 0.00 70 1008.8
20260506110055 18 171 4.8 16.1 0.00 0.00 0.00 70 1008.9
20260506105552 18 219 4.8 16.1 0.00 0.00 0.00 70 1008.9
20260506105051 18 233 4.8 16.1 0.00 0.00 0.00 69 1008.7
20260506104554 18 134 4.8 22.5 0.00 0.00 0.00 68 1008.6
20260506104055 18 0 4.8 22.5 0.00 0.00 0.00 66 1008.6
20260506103551 18 133 9.7 22.5 0.00 0.00 0.00 66 1008.5
20260506103104 18 230 1.6 24.1 0.00 0.00 0.00 66 1008.5
20260506102551 19 219 9.7 24.1 0.00 0.00 0.00 65 1008.5
20260506102056 18 192 3.2 17.7 0.00 0.00 0.00 66 1008.5
20260506101553 19 148 3.2 19.3 0.00 0.00 0.00 65 1008.5
20260506101051 19 123 6.4 19.3 0.00 0.00 0.00 65 1008.4
20260506100553 18 134 3.2 17.7 0.00 0.00 0.00 65 1008.3
20260506100103 18 190 3.2 14.5 0.00 0.00 0.00 65 1008.3
20260506095551 19 240 6.4 20.9 0.00 0.00 0.00 64 1008.3
20260506095055 18 135 1.6 20.9 0.00 0.00 0.00 64 1008.3
20260506094553 19 171 6.4 16.1 0.00 0.00 0.00 64 1008.2
20260506094050 19 0 4.8 19.3 0.00 0.00 0.00 64 1008.3
20260506093554 19 230 6.4 19.3 0.00 0.00 0.00 64 1008.2
20260506093058 19 167 3.2 14.5 0.00 0.00 0.00 63 1008.3
20260506092551 19 144 1.6 19.3 0.00 0.00 0.00 63 1008.2
20260506092053 19 180 3.2 19.3 0.00 0.00 0.00 63 1008.4
20260506091558 19 196 6.4 20.9 0.00 0.00 0.00 63 1008.1
20260506091053 19 248 3.2 20.9 0.00 0.00 0.00 63 1008.3
20260506090552 19 154 3.2 25.7 0.00 0.00 0.00 63 1008.3
20260506090054 19 246 6.4 25.7 0.00 0.00 0.00 62 1008.5
20260506085551 19 202 4.8 22.5 0.00 0.00 0.00 62 1008.6
20260506085051 19 169 6.4 22.5 0.00 0.00 0.00 62 1008.7
20260506084553 19 148 6.4 16.1 0.00 0.00 0.00 62 1008.7
20260506084053 19 155 3.2 12.9 0.00 0.00 0.00 62 1008.7
20260506083553 19 0 3.2 12.9 0.00 0.00 0.00 61 1008.6
20260506083115 19 205 3.2 16.1 0.00 0.00 0.00 61 1008.5
20260506082550 19 172 3.2 16.1 0.00 0.00 0.00 61 1008.5
20260506082052 19 157 4.8 17.7 0.00 0.00 0.00 60 1008.6
20260506081604 19 154 6.4 17.7 0.00 0.00 0.00 60 1008.6
20260506081052 20 125 4.8 19.3 0.00 0.00 0.00 60 1008.8
20260506080556 20 146 3.2 19.3 0.00 0.00 0.00 59 1008.6